Weather in Yuzhny

Russia / Rostov Oblast     47°20′21″N   41°51′50″E
temp.,
°C
wind,
m/s
gust,
m/s
humid.,
%
clouds,
%
prec.,
mm/h
press.,
hPa
HPBL,
m
25 february, thu
thu2500:00−13se358085 0.0 1040240
03:00−14se237676 0.0 1039149
06:00−14se248274 0.0 1038128
09:00−12sse357880 0.0 1037250
12:00−7s356698 0.0 1035378
15:00−5sw357099 0.0 1033407
18:00−6sw3580100 0.0 1031116
21:00−6sw41075100 0.0 1030242
26 february, fri
fri2600:00−3wsw71382100 0.0 1027393
03:00−1wsw71491100 0.0 1026441
06:00+1w71495100 0.8 1024458
09:00+1wsw71496100 1.2 1025427
12:00+2w61199100 1.0 1024351
15:00+3wsw61299100 1.2 1023400
18:00+3wsw61198100 0.0 1022353
21:00+3wsw61298100 0.0 1021348
27 february, sat
sat2700:00+3wsw7149799 0.0 1019446
03:00+3wsw71595100 0.0 1018651
06:00+3wsw51597100 0.2 1016473
09:00+3wsw61397100 0.4 1016411
12:00+3w61297100 0.0 1014402
15:00+5w61191100 0.0 1014671
18:00+3wsw41094100 0.0 1013249
21:00+3wsw4896100 0.6 1013229
28 february, sun
sun2800:00+2w3696100 0.0 1012137
03:00+1w3495100 0.0 101276
06:000wnw2395100 0.0 101339
09:00+1nnw3496100 0.0 1013252
12:00+4nw347276 0.0 1013876
15:00+3wnw458485 0.3 1014584
18:00+1nw3688100 0.3 1016180
21:000n4797100 0.6 1019424
1 march, mon
mon100:00−2nnw338862 0.0 102080
03:00−2nnw368732 0.0 1022204
06:00−3nnw24850 0.0 1023166
09:00−1nnw237930 0.0 1025573
12:000nnw3470100 0.1 1027789
15:00+1nnw4569100 0.1 1027882
18:00−1nnw367497 0.1 1028212
21:00−2n367694 0.1 1030261